Погода в Журавке

Россия / Волгоградская область     50°51′30″N   43°51′18″E
темп.,
°C
ветер,
м/с
пор.,
м/с
влажн.,
%
обл.,
%
осадки,
мм/ч
давл.,
гПа
погр.,
м
7 мая, пт
пт700:00+11ююв51259100 0.0 1014247
03:00+12ююв51356100 0.0 1013338
06:00+12ююв61360100 0.0 1013347
09:00+16ю71256100 0.0 1012728
12:00+15ююз71258100 0.1 10131470
15:00+13з6987100 3.2 1014604
18:00+12ссз558262 1.8 1015592
21:00+9ссз489142 1.8 1017286
8 мая, сб
сб800:00+7ссз2296100 0.0 101725
03:00+6ссз33940 0.0 101737
06:00+6ссз128710 0.0 1018109
09:00+12вюв1165100 0.0 1016504
12:00+17ююз344137 0.0 10151056
15:00+18ююз5644100 0.0 10141376
18:00+17ююв3660100 0.0 1012174
21:00+15ююв3670100 0.0 1012115
9 мая, вс
вс900:00+13ююв51179100 0.3 1010214
03:00+12ю41087100 1.6 1010200
06:00+13ююз2393100 1.8 1010150
09:00+14ююв1290100 4.4 1009381
12:00+9сз7791100 0.2 1011416
15:00+9ссз6682100 0.2 1012450
18:00+7ссз71188100 0.0 1013491
21:00+7ссз61191100 0.6 1014544
10 мая, пн
пн1000:00+7ссз61296100 6.3 1013552
03:00+7ссз91497100 18.9 1011513
06:00+9ссв61196100 2.4 1011350
09:00+12ссв61286100 3.4 1012463
12:00+17в71868100 0.1 10131678
15:00+16вюв5977100 0.6 1014474
18:00+14в1592100 0.9 1015161
21:00+14в51185100 1.2 1016427
11 мая, вт
вт1100:00+13св41293100 0.4 1016500
03:00+12вюв51096100 1.6 1016614
06:00+8ююв4792100 6.3 1021505
09:00+11ююв357025 6.3 1023932
12:00+15юв33550 0.0 10241049
15:00+17св234818 0.0 10241490
18:00+14ююв3471100 0.3 102495
21:00+10зюз4588100 1.4 1023268